Weather History for Auburn, IN

Change the Weather History Date:

Saturday, April 20, 2013

  Actual Average (KFWA) Record (KFWA)
Temperature  
Mean Temperature 37 °F 52 °F  
Max Temperature 42 °F 63 °F 84 °F (1985)
Min Temperature 30 °F 40 °F 20 °F (1904)
Degree Days  
Heating Degree Days 28 14  
Month to date heating degree days 341  
Since 1 July heating degree days 5765  
Cooling Degree Days 0 0  
Month to date cooling degree days 0  
Year to date cooling degree days 0  
Moisture  
Dew Point 23 °F    
Average Humidity 60    
Maximum Humidity 93    
Minimum Humidity 36    
Precipitation  
Precipitation 0.00 in 0.11 in 1.44 in (1920)
Month to date precipitation 2.40  
Year to date precipitation 9.41  
Snow  
Snow 0.00 in 0.00 in 0.20 in (1953)
Month to date snowfall 0.9  
Since 1 July snowfall 33.4  
Snow Depth -    
Sea Level Pressure  
Sea Level Pressure 30.16 in    
Wind  
Wind Speed 12 mph (WNW)    
Max Wind Speed 21 mph    
Max Gust Speed 33 mph    
Visibility 10 miles    
Events Rain , Snow    
T = Trace of Precipitation, MM = Missing Value Source: NWS Daily Summary

Daily Weather History Graph

Daily Weather History Graph

Search for Another Location

Airport:

Trip Planner

Search our weather history database for the weather conditions in past years. The results will help you decide how hot, cold, wet, or windy it might be!

Date:

Astronomy

Apr. 20, 2013 Rise Set
Actual Time 6:52 AM EDT 8:26 PM EDT
Civil Twilight 6:23 AM EDT 8:55 PM EDT
Nautical Twilight 5:48 AM EDT 9:30 PM EDT
Astronomical Twilight 5:11 AM EDT 10:07 PM EDT
Moon 3:06 PM EDT (4/20) 3:45 AM EDT (4/20)
Length of Visible Light 14h 31m
Length of Day
13h 33m
Waxing Gibbous, 71% of the Moon is Illuminated
Apr 20
Waxing Gibbous
Apr 25
Full
May 2
Last Quarter
May 9
New
May 18
First Quarter

Hourly Weather History & Observations

Time (EDT) Temp. Windchill Dew Point Humidity Pressure Visibility Wind Dir Wind Speed Gust Speed Precip Events Conditions
12:15 AM 35.6 °F 25.2 °F 30.2 °F 81% 29.85 in 7.0 mi West 18.4 mph 24.2 mph N/A Rain Light Rain
12:35 AM 35.6 °F 28.0 °F 30.2 °F 81% 29.85 in 10.0 mi WSW 10.4 mph 19.6 mph N/A   Scattered Clouds
12:55 AM 35.6 °F 25.2 °F 30.2 °F 81% 29.87 in 10.0 mi West 18.4 mph 26.5 mph N/A   Overcast
1:15 AM 33.8 °F 25.3 °F 30.2 °F 87% 29.88 in 10.0 mi West 11.5 mph 18.4 mph N/A   Mostly Cloudy
1:35 AM 33.8 °F 27.0 °F 30.2 °F 87% 29.88 in 10.0 mi West 8.1 mph - N/A   Overcast
1:55 AM 33.8 °F 26.4 °F 32.0 °F 93% 29.89 in 2.0 mi West 9.2 mph - N/A Snow Light Snow
2:15 AM 33.8 °F 26.4 °F 32.0 °F 93% 29.89 in 10.0 mi WSW 9.2 mph - N/A   Overcast
2:35 AM 33.8 °F 26.4 °F 30.2 °F 87% 29.90 in 10.0 mi WSW 9.2 mph - N/A   Mostly Cloudy
2:55 AM 33.8 °F 25.8 °F 28.4 °F 81% 29.90 in 10.0 mi WSW 10.4 mph 16.1 mph N/A   Mostly Cloudy
3:15 AM 33.8 °F 27.0 °F 28.4 °F 81% 29.91 in 10.0 mi WSW 8.1 mph - N/A   Overcast
3:35 AM 33.8 °F 25.8 °F 30.2 °F 87% 29.92 in 10.0 mi WSW 10.4 mph 16.1 mph N/A   Overcast
3:55 AM 33.8 °F 25.3 °F 28.4 °F 81% 29.92 in 10.0 mi WSW 11.5 mph 18.4 mph N/A   Overcast
4:15 AM 33.8 °F 25.8 °F 28.4 °F 81% 29.93 in 10.0 mi WSW 10.4 mph 17.3 mph N/A   Overcast
4:35 AM 33.8 °F 24.3 °F 28.4 °F 81% 29.94 in 10.0 mi West 13.8 mph 18.4 mph N/A   Overcast
4:55 AM 33.8 °F 25.8 °F 30.2 °F 87% 29.95 in 10.0 mi WSW 10.4 mph 18.4 mph N/A   Overcast
5:15 AM 32.0 °F 22.1 °F 28.4 °F 87% 29.97 in 4.0 mi WNW 13.8 mph 33.4 mph N/A Snow Light Snow
5:35 AM 33.8 °F 25.3 °F 28.4 °F 81% 29.98 in 10.0 mi West 11.5 mph - N/A   Overcast
5:55 AM 33.8 °F 23.5 °F 26.6 °F 75% 29.99 in 10.0 mi WNW 16.1 mph 20.7 mph N/A   Overcast
6:15 AM 33.8 °F 24.3 °F 26.6 °F 75% 30.00 in 10.0 mi West 13.8 mph 19.6 mph N/A   Overcast
6:35 AM 33.8 °F 22.2 °F 24.8 °F 70% 30.00 in 10.0 mi West 20.7 mph 25.3 mph N/A   Overcast
6:55 AM 32.0 °F 21.2 °F 24.8 °F 75% 30.02 in 10.0 mi West 16.1 mph - N/A   Mostly Cloudy
7:15 AM 32.0 °F 22.5 °F 24.8 °F 75% 30.03 in 10.0 mi West 12.7 mph - N/A   Scattered Clouds
7:35 AM 32.0 °F 23.0 °F 24.8 °F 75% 30.05 in 10.0 mi WNW 11.5 mph - N/A   Mostly Cloudy
7:55 AM 33.8 °F 25.3 °F 23.0 °F 65% 30.06 in 10.0 mi WNW 11.5 mph 16.1 mph N/A   Mostly Cloudy
8:15 AM 33.8 °F 24.8 °F 23.0 °F 65% 30.07 in 10.0 mi WNW 12.7 mph - N/A   Overcast
8:35 AM 33.8 °F 23.5 °F 23.0 °F 65% 30.09 in 10.0 mi WNW 16.1 mph - N/A   Overcast
8:55 AM 33.8 °F 24.3 °F 21.2 °F 60% 30.10 in 10.0 mi WNW 13.8 mph - N/A   Scattered Clouds
9:15 AM 33.8 °F 25.3 °F 21.2 °F 60% 30.11 in 10.0 mi WNW 11.5 mph 19.6 mph N/A   Scattered Clouds
9:35 AM 35.6 °F 27.5 °F 21.2 °F 56% 30.13 in 10.0 mi WNW 11.5 mph 20.7 mph N/A   Mostly Cloudy
9:55 AM 35.6 °F 26.6 °F 21.2 °F 56% 30.14 in 10.0 mi WNW 13.8 mph 21.9 mph N/A   Mostly Cloudy
10:15 AM 35.6 °F 27.1 °F 23.0 °F 60% 30.15 in 10.0 mi West 12.7 mph 17.3 mph N/A   Scattered Clouds
10:35 AM 35.6 °F 27.1 °F 23.0 °F 60% 30.16 in 10.0 mi WNW 12.7 mph 17.3 mph N/A   Mostly Cloudy
10:55 AM 35.6 °F 26.6 °F 23.0 °F 60% 30.17 in 10.0 mi WNW 13.8 mph 19.6 mph N/A   Mostly Cloudy
11:15 AM 37.4 °F 29.8 °F 24.8 °F 60% 30.18 in 10.0 mi WNW 11.5 mph 19.6 mph N/A   Scattered Clouds
11:35 AM 37.4 °F 29.3 °F 23.0 °F 56% 30.19 in 10.0 mi WNW 12.7 mph 19.6 mph N/A   Scattered Clouds
11:55 AM 37.4 °F 28.2 °F 24.8 °F 60% 30.20 in 10.0 mi WNW 16.1 mph 20.7 mph N/A   Mostly Cloudy
12:15 PM 39.2 °F 31.2 °F 23.0 °F 52% 30.21 in 10.0 mi WNW 13.8 mph 19.6 mph N/A   Mostly Cloudy
12:35 PM 37.4 °F 29.8 °F 23.0 °F 56% 30.21 in 10.0 mi WNW 11.5 mph - N/A   Mostly Cloudy
12:55 PM 39.2 °F 32.0 °F 23.0 °F 52% 30.22 in 10.0 mi West 11.5 mph 20.7 mph N/A   Overcast
1:15 PM 39.2 °F 31.6 °F 23.0 °F 52% 30.22 in 10.0 mi WNW 12.7 mph 16.1 mph N/A   Overcast
1:35 PM 42.8 °F 36.2 °F 24.8 °F 49% 30.23 in 10.0 mi WSW 12.7 mph 19.6 mph N/A   Overcast
1:55 PM 41.0 °F 32.2 °F 23.0 °F 49% 30.23 in 10.0 mi WNW 18.4 mph 21.9 mph N/A   Overcast
2:15 PM 42.8 °F 35.4 °F 21.2 °F 42% 30.23 in 10.0 mi WNW 15.0 mph 21.9 mph N/A   Mostly Cloudy
2:35 PM 41.0 °F 33.9 °F 23.0 °F 49% 30.24 in 10.0 mi WNW 12.7 mph 21.9 mph N/A   Mostly Cloudy
2:55 PM 41.0 °F 33.1 °F 23.0 °F 49% 30.25 in 10.0 mi WNW 15.0 mph 23.0 mph N/A   Mostly Cloudy
3:15 PM 41.0 °F 34.3 °F 21.2 °F 45% 30.25 in 10.0 mi WNW 11.5 mph 20.7 mph N/A   Mostly Cloudy
3:35 PM 41.0 °F 32.5 °F 21.2 °F 45% 30.26 in 10.0 mi WNW 17.3 mph 21.9 mph N/A   Mostly Cloudy
3:55 PM 42.8 °F 35.8 °F 23.0 °F 46% 30.27 in 10.0 mi West 13.8 mph 19.6 mph N/A   Mostly Cloudy
4:15 PM 42.8 °F 36.6 °F 21.2 °F 42% 30.27 in 10.0 mi West 11.5 mph 23.0 mph N/A   Scattered Clouds
4:35 PM 42.8 °F 35.8 °F 21.2 °F 42% 30.28 in 10.0 mi WNW 13.8 mph 20.7 mph N/A   Scattered Clouds
4:55 PM 42.8 °F 35.4 °F 21.2 °F 42% 30.28 in 10.0 mi WNW 15.0 mph 19.6 mph N/A   Scattered Clouds
5:15 PM 42.8 °F 34.8 °F 19.4 °F 39% 30.29 in 10.0 mi WNW 17.3 mph 21.9 mph N/A   Scattered Clouds
5:35 PM 41.0 °F 33.5 °F 19.4 °F 42% 30.30 in 10.0 mi West 13.8 mph 20.7 mph N/A   Scattered Clouds
5:55 PM 41.0 °F 33.1 °F 19.4 °F 42% 30.31 in 10.0 mi NW 15.0 mph 21.9 mph N/A   Scattered Clouds
6:15 PM 41.0 °F 32.8 °F 17.6 °F 39% 30.32 in 10.0 mi WNW 16.1 mph 20.7 mph N/A   Clear
6:35 PM 41.0 °F 32.8 °F 15.8 °F 36% 30.32 in 10.0 mi NW 16.1 mph 21.9 mph N/A   Clear
6:55 PM 41.0 °F 33.9 °F 17.6 °F 39% 30.33 in 10.0 mi NW 12.7 mph 18.4 mph N/A   Clear
7:15 PM 41.0 °F 34.7 °F 15.8 °F 36% 30.33 in 10.0 mi NW 10.4 mph 18.4 mph N/A   Clear
7:35 PM 39.2 °F 33.0 °F 15.8 °F 39% 30.33 in 10.0 mi NW 9.2 mph - N/A   Clear
7:55 PM 37.4 °F 31.4 °F 17.6 °F 45% 30.34 in 10.0 mi NW 8.1 mph - N/A   Clear
8:15 PM 37.4 °F 31.4 °F 15.8 °F 41% 30.35 in 10.0 mi NNW 8.1 mph - N/A   Clear
8:35 PM 35.6 °F 30.7 °F 15.8 °F 44% 30.36 in 10.0 mi NNW 5.8 mph - N/A   Clear
8:55 PM 35.6 °F 30.7 °F 14.0 °F 41% 30.37 in 10.0 mi NNW 5.8 mph - N/A   Clear
9:15 PM 35.6 °F 30.7 °F 15.8 °F 44% 30.38 in 10.0 mi NNW 5.8 mph - N/A   Clear
9:35 PM 35.6 °F 31.7 °F 15.8 °F 44% 30.39 in 10.0 mi North 4.6 mph - N/A   Clear
9:55 PM 33.8 °F 30.8 °F 15.8 °F 48% 30.41 in 10.0 mi North 3.5 mph - N/A   Clear
10:15 PM 33.8 °F - 17.6 °F 52% 30.42 in 10.0 mi Calm Calm - N/A   Clear
10:55 PM 32.0 °F - 17.6 °F 55% 30.42 in 10.0 mi Calm Calm - N/A   Clear
11:15 PM 32.0 °F - 17.6 °F 55% 30.43 in 10.0 mi Calm Calm - N/A   Clear
11:35 PM 32.0 °F - 17.6 °F 55% 30.44 in 10.0 mi Calm Calm - N/A   Clear
11:55 PM 30.2 °F - 19.4 °F 64% 30.44 in 10.0 mi Calm Calm - N/A   Clear